Mobile, AL

4:38 PM CST on December 06, 2019 (GMT -0600)
Mobile Regional

Weather History for KMOB - November, 2019

Change the Weather History Date:

Friday, November 15, 2019

  Actual Average Record
Temperature  
Mean Temperature 54 °F 60 °F  
Max Temperature 65 °F 71 °F 83 °F (1980)
Min Temperature 42 °F 49 °F 25 °F (1940)
Degree Days  
Heating Degree Days 12 6  
Month to date heating degree days 140 76  
Since 1 July heating degree days 167 131  
Cooling Degree Days 0 1  
Month to date cooling degree days 11 27  
Year to date cooling degree days 3121 2489  
Growing Degree Days 4 (Base 50)    
Moisture  
Dew Point 36 °F    
Average Humidity 57    
Maximum Humidity 89    
Minimum Humidity 31    
Precipitation  
Precipitation 0.00 in 0.18 in 5.70 in (2006)
Month to date precipitation 0.69 2.57  
Year to date precipitation 58.25 58.53  
Snow  
Snow 0.00 in 0.00 in 0.00 in (2002)
Month to date snowfall 0.0 0.0  
Since 1 July snowfall 0.0 0.0  
Snow Depth 0.00 in    
Sea Level Pressure  
Sea Level Pressure 30.17 in    
Wind  
Wind Speed 10 mph ()    
Max Wind Speed 22 mph    
Max Gust Speed 28 mph    
Visibility 9.9 miles    
Events      
T = Trace of Precipitation, MM = Missing Value Source: Averaged Metar Reports

Daily Weather History Graph

Daily Weather History Graph

Search for Another Location

Airport or City:

Astronomy

Nov. 15, 2019 Rise Set
Actual Time 6:19 AM CST 4:55 PM CST
Civil Twilight 5:53 AM CST 5:21 PM CST
Nautical Twilight 5:24 AM CST 5:50 PM CST
Astronomical Twilight 4:55 AM CST 6:18 PM CST
Moon 7:38 PM CST (11/15) 9:08 AM CST (11/15)
Length of Visible Light 11h 27m
Length of Day
10h 36m
Waning Gibbous, 90% of the Moon is Illuminated
Nov 15
Waning Gibbous
Nov 19
Last Quarter
Nov 26
New
Dec 4
First Quarter
Dec 11
Full

Hourly Weather History & Observations

Time (CST) Temp. Windchill Dew Point Humidity Pressure Visibility Wind Dir Wind Speed Gust Speed Precip Events Conditions
12:56 AM 45.0 °F 39.7 °F 41.0 °F 86% 30.22 in 10.0 mi North 10.4 mph - N/A   Overcast
1:56 AM 45.0 °F 39.7 °F 41.0 °F 86% 30.22 in 10.0 mi NNW 10.4 mph - N/A   Overcast
2:56 AM 44.1 °F 38.6 °F 39.9 °F 85% 30.20 in 10.0 mi North 10.4 mph - N/A   Mostly Cloudy
3:56 AM 44.1 °F 38.1 °F 39.9 °F 85% 30.21 in 10.0 mi NNW 11.5 mph - N/A   Overcast
5:56 AM 43.0 °F 37.2 °F 37.9 °F 82% 30.20 in 7.0 mi NNW 10.4 mph - N/A   Scattered Clouds
7:56 AM 46.9 °F - 37.0 °F 68% 30.21 in 10.0 mi NNW 12.7 mph - N/A   Partly Cloudy
8:56 AM 52.0 °F - 36.0 °F 54% 30.22 in 10.0 mi North 10.4 mph 20.7 mph N/A   Clear
9:56 AM 57.0 °F - 35.1 °F 44% 30.20 in 10.0 mi North 13.8 mph 20.7 mph N/A   Clear
10:56 AM 60.1 °F - 35.1 °F 39% 30.19 in 10.0 mi North 15.0 mph 21.9 mph N/A   Clear
11:56 AM 61.0 °F - 34.0 °F 36% 30.16 in 10.0 mi NNW 16.1 mph 25.3 mph N/A   Clear
12:56 PM 63.0 °F - 34.0 °F 34% 30.13 in 10.0 mi North 13.8 mph 23.0 mph N/A   Partly Cloudy
1:56 PM 63.0 °F - 32.0 °F 31% 30.12 in 10.0 mi North 18.4 mph 25.3 mph N/A   Partly Cloudy
2:56 PM 63.0 °F - 33.1 °F 33% 30.12 in 10.0 mi NNW 18.4 mph 23.0 mph N/A   Partly Cloudy
3:56 PM 61.0 °F - 34.0 °F 36% 30.12 in 10.0 mi North 11.5 mph - N/A   Partly Cloudy
4:56 PM 55.9 °F - 34.0 °F 44% 30.14 in 10.0 mi NNW 13.8 mph - N/A   Partly Cloudy
5:56 PM 52.0 °F - 34.0 °F 50% 30.15 in 10.0 mi NW 5.8 mph - N/A   Partly Cloudy
6:56 PM 48.9 °F - 35.1 °F 59% 30.16 in 10.0 mi NNW 6.9 mph - N/A   Partly Cloudy
7:56 PM 50.0 °F - 35.1 °F 57% 30.17 in 10.0 mi North 11.5 mph - N/A   Clear
9:56 PM 46.0 °F 41.9 °F 36.0 °F 68% 30.18 in 10.0 mi NW 8.1 mph - N/A   Clear
10:56 PM 46.0 °F 42.5 °F 34.0 °F 63% 30.18 in 10.0 mi NW 6.9 mph - N/A   Clear
11:56 PM 45.0 °F 39.3 °F 33.1 °F 63% 30.16 in 10.0 mi North 11.5 mph - N/A   Clear